Location: Ellerstadt
(49.4644°N, 8.2615°E)
Time: 17:45:31
(UTC+00:00)

Explorer 11/Cluster Stage 4 - All Passes

Search period start: 18 June 2021 00:00
Search period end: 28 June 2021 00:00
Orbit: 467 x 1257 km, 28.8° (Epoch: 17 June)

Date Brightness Start Highest point End Pass type
(mag) Time Alt. Az. Time Alt. Az. Time Alt. Az.
18 Jun - 05:10:52 10° SSW 05:13:35 12° S 05:16:10 10° SSE daylight
19 Jun - 04:58:57 10° SSW 05:02:15 13° S 05:05:22 10° SSE daylight
19 Jun - 06:49:27 10° SSW 06:49:40 10° SSW 06:49:53 10° SSW daylight
20 Jun - 03:01:16 10° S 03:03:16 11° SSE 03:05:13 10° SSE daylight
20 Jun - 04:47:11 10° SSW 04:50:53 14° S 04:54:23 10° SSE daylight
20 Jun - 06:37:43 10° SSW 06:38:19 10° SSW 06:38:55 10° SSW daylight
21 Jun - 02:48:56 10° S 02:51:51 12° SSE 02:54:42 10° SE daylight
21 Jun - 04:35:30 10° SSW 04:39:30 15° S 04:43:18 10° SSE daylight
21 Jun - 06:26:35 10° SSW 06:26:57 10° SSW 06:27:20 10° SSW daylight
22 Jun - 02:36:56 10° SSW 02:40:25 13° SSE 02:43:51 10° SE visible
22 Jun - 04:23:55 10° SW 04:28:06 15° S 04:32:06 10° SSE daylight
23 Jun - 02:25:08 10° SSW 02:28:59 14° S 02:32:49 10° SE visible
23 Jun - 04:12:24 10° SW 04:16:41 15° S 04:20:49 10° SSE daylight
24 Jun - 02:13:27 10° SSW 02:17:33 15° S 02:21:40 10° SE visible
24 Jun - 04:00:57 10° SW 04:05:15 15° S 04:09:27 10° SSE daylight
25 Jun - 02:01:52 10° SSW 02:06:07 15° S 02:10:24 10° SE visible
25 Jun - 03:49:35 10° SW 03:53:49 15° S 03:57:59 10° SSE daylight
26 Jun - 01:50:24 10° SSW 01:54:40 15° S 01:59:03 10° SE visible
26 Jun - 03:38:19 10° SW 03:42:22 15° S 03:46:25 10° SSE daylight
27 Jun - 01:39:00 10° SSW 01:43:14 15° S 01:47:37 10° SE visible
27 Jun - 03:27:08 10° SW 03:30:56 14° SSW 03:34:45 10° SSE daylight
27 Jun - 23:43:18 10° SSE 23:44:18 10° SSE 23:45:21 10° SSE visible
